Regional Weather Roundup
Issued by NWS

Home | Current Version | Previous Version | Text Only | Print | Product List | Glossary On
Versions: 1 2 3 4 5 6 7 8 9 10 11 12 13 14 15 16 17 18 19 20 21 22 23 24 25 26 27 28 29 30 31 32 33 34 35 36 37 38 39 40 41 42 43 44 45 46 47 48 49 50
000
ASUS43 KDTX 270310
RWRMI
MICHIGAN HOURLY REGIONAL WEATHER ROUNDUP
NATIONAL WEATHER SERVICE DETROIT/PONTIAC MI
1100 PM EDT MON SEP 26 2016

NOTE: "FAIR" INDICATES FEW OR NO CLOUDS BELOW 12,000 FEET WITH NO
SIGNIFICANT WEATHER AND/OR OBSTRUCTION TO VISIBILITY.

MIZ047>049-052>055-059>063-066>070-074>076-081>083-270400-
SOUTHEAST LOWER MICHIGAN

CITY           SKY/WX    TMP DP  RH WIND       PRES   REMARKS
ADRIAN         CLEAR     53  43  68 W5        29.94F
ALMA           CLEAR     51  46  83 SW8       29.85F
ANN ARBOR      CLEAR     45  43  93 SW5       29.92S
BAD AXE        PTCLDY    50  45  82 SW5       29.84F
CARO           CLOUDY    49  46  87 SW6       29.86F
DETROIT CITY   CLEAR     57  42  57 SW6       29.91F
DETROIT        PTCLDY    55  43  63 S8        29.92F
FLINT          LGT RAIN  53  45  74 W20G26    29.92R
GROSSE ILE     CLEAR     59  42  53 SW7       29.92F
HILLSDALE      CLEAR     54  39  58 SW6       29.93F
HOWELL         CLEAR     54  43  65 NW10G17   29.91R

CITY           SKY/WX    TMP DP  RH WIND       PRES   REMARKS
JACKSON        PTCLDY    54  42  64 SW7       29.91F
LAMBERTVILLE   CLEAR     51  46  82 CALM      29.95S
LANSING        PTCLDY    53  44  71 SE3       29.89F
LAPEER         RAIN      56  42  59 NW9G23    29.91R
MASON          CLEAR     53  42  67 NW7       29.90S
MONROE         PTCLDY    51  45  78 SW6       29.92F
MT. CLEMENS    PTCLDY    55  43  65 SW6       29.88F
PONTIAC        PTCLDY    56  43  61 SW6       29.89F
PORT HURON     PTCLDY    55  43  62 W5        29.91R
TRI CITIES     PTCLDY    54  44  69 S8        29.85F
MIDLAND        FAIR      52  42  67 S6        29.82F
TROY           CLEAR     58  40  51 SW7       29.92F
SAGINAW HB     CLOUDY    52  45  76 S9        29.84F
$$
MIZ043>046-050>051-056>058-064>065-071>073-077>080-270400-
SOUTHWEST LOWER MICHIGAN

CITY           SKY/WX    TMP DP  RH WIND       PRES   REMARKS
BATTLE CREEK   PTCLDY    53  44  71 SW9       29.91F
BENTON HARBOR  PTCLDY    65  36  34 W22G29    29.91F
BIG RAPIDS     CLOUDY    51  46  81 CALM      29.82S
COLDWATER      CLEAR     55  39  56 SW7       29.93F
FREMONT        CLOUDY    57  33  40 W6        29.83F
HOLLAND        CLOUDY    65  38  36 W14G25    29.87F
GRAND RAPIDS   CLOUDY    53  45  74 S9        29.87F
IONIA          FAIR      51  45  78 S8        29.86F
KALAMAZOO      MOCLDY    55  42  61 SW9       29.92S
LUDINGTON      CLOUDY    60  42  50 W13G26    29.80F
MARSHALL       CLEAR     55  41  59 SW7       29.91S
MOUNT PLEASANT PTCLDY    53  41  64 SW3       29.82F
MUSKEGON       PTCLDY    63  38  39 W13G25    29.85F
SOUTH HAVEN    PTCLDY    67  38  34 W15G26    29.89F
$$
MIZ016>042-270400-
NORTHERN LOWER MICHIGAN

CITY           SKY/WX    TMP DP  RH WIND       PRES   REMARKS
ALPENA         CLOUDY    54  43  66 SW9G18    29.74F
BEAVER ISLAND  DRIZZLE   54  48  82 W21G35    29.66F
BELLAIRE       LGT RAIN  54  50  87 SW8       29.73F
CADILLAC       DRIZZLE   50  45  83 W7        29.79F
CHARLEVOIX     LGT RAIN  55  47  74 W25G37    29.71F
FRANKFORT      CLOUDY    60  42  50 W17G28    29.75F
GAYLORD        LGT RAIN  50  45  83 SW14      29.73F
GRAYLING       DRIZZLE   50  47  88 SW8G20    29.77F
HARBOR SPRINGS RAIN      54  49  83 W15G25    29.67F
HOUGHTON LAKE  CLOUDY    54  43  66 W13G20    29.79F
MANISTEE       CLOUDY    61  41  47 W23G30    29.77F
OSCODA         CLEAR     49  41  73 SW7       29.77F
PELLSTON       LGT RAIN  53  48  83 W5        29.67F
ROGERS CITY    LGT RAIN  52  46  78 SW8G17    29.72S
TRAVERSE CITY  LGT RAIN  53  49  86 S5        29.73F
$$
MIZ007>008-015-270400-
EASTERN UPPER MICHIGAN

CITY           SKY/WX    TMP DP  RH WIND       PRES   REMARKS
KINROSS        CLOUDY    52  46  80 SW8       29.63F
MACKINAC ISLAN LGT RAIN  56  47  72 W21G35    29.63F
NEWBERRY       MOCLDY    51  46  82 SW15G23   29.60F
S. S. MARIE    CLOUDY    53  46  77 SW10      29.61F
MUNISING         N/A     52  47  83 SW10      29.58F
$$
MIZ004>006-011>014-085-270400-
CENTRAL UPPER MICHIGAN

CITY           SKY/WX    TMP DP  RH WIND       PRES   REMARKS
MANISTIQUE     DRIZZLE   52  46  78 W8        29.63F
ESCANABA       CLOUDY    54  44  69 W16G28    29.65
MENOMINEE      CLOUDY    54  43  66 VRB6      29.73F
SAWYER-GWINN   CLOUDY    48  46  90 SW12      29.60F
$$
MIZ001>003-009>011-084-270400-
WESTERN UPPER MICHIGAN

CITY           SKY/WX    TMP DP  RH WIND       PRES   REMARKS
IRON MOUNTAIN  CLOUDY    51  44  77 W12       29.65F
HOUGHTON       LGT RAIN  51  47  86 W26G40    29.50F
COPPER HARBOR    N/A     53  51  93 NW10G23   29.47F
IRONWOOD       LGT RAIN  49  47  93 W16       29.66F
$$

ABBREVIATIONS USED IN REMARKS
   TC - TEMPERATURE IN CELSIUS
  WCI - WIND CHILL INDEX
   HX - HEAT INDEX
  VSB - VISIBILITY





USA.gov is the U.S. government's official web portal to all federal, state and local government web resources and services.